FW9926 Weather Reports


Display with metric or nautical units.
time (UTC)temp
F
wind
direction
speed
MPH
gust
MPH
rain 1hr
in
rain 24hr
in
rain mn
in
humidity
%
barometer
mb
20260506174553 55 319 3.0 6.0 0.00 0.01 0.00 60 1022.0
20260506173121 54 355 2.0 8.0 0.00 0.01 0.00 62 1021.8
20260506171555 53 5 2.0 5.0 0.00 0.01 0.00 62 1021.8
20260506170057 52 360 2.0 5.0 0.00 0.01 0.00 65 1021.6
20260506164550 51 333 2.0 8.0 0.00 0.01 0.00 66 1021.5
20260506163055 50 327 2.0 7.0 0.00 0.01 0.00 69 1021.3
20260506161552 49 313 2.0 5.0 0.00 0.01 0.00 71 1021.3
20260506160108 48 315 2.0 4.0 0.00 0.01 0.00 74 1020.9
20260506154554 48 5 3.0 5.0 0.00 0.03 0.00 73 1020.7
20260506153053 47 336 3.0 7.0 0.00 0.03 0.00 71 1020.8
20260506151554 46 325 2.0 8.0 0.00 0.03 0.00 71 1020.8
20260506150050 45 0 1.0 4.0 0.00 0.03 0.00 74 1020.6
20260506144602 44 0 0.0 4.0 0.00 0.03 0.00 80 1020.7
20260506143052 43 0 0.0 0.0 0.00 0.03 0.00 82 1020.5
20260506141552 41 0 0.0 0.0 0.00 0.03 0.00 86 1020.1
20260506140048 40 0 0.0 0.0 0.00 0.03 0.00 90 1020.3
20260506134548 39 0 0.0 0.0 0.00 0.05 0.00 94 1019.9
20260506133109 38 0 0.0 0.0 0.00 0.05 0.00 95 1020.0
20260506131559 38 0 0.0 0.0 0.00 0.05 0.00 96 1019.8
20260506130055 38 0 0.0 0.0 0.00 0.05 0.00 97 1019.6
20260506124548 37 0 0.0 0.0 0.00 0.06 0.00 97 1019.5
20260506123049 37 0 0.0 0.0 0.00 0.06 0.00 97 1019.1
20260506121547 37 0 0.0 0.0 0.00 0.06 0.00 97 1019.2
20260506120056 37 0 0.0 0.0 0.00 0.06 0.00 97 1019.0
20260506114549 37 0 0.0 0.0 0.00 0.13 0.00 97 1019.0
20260506113050 37 0 0.0 0.0 0.00 0.13 0.00 97 1018.9
20260506111552 37 0 0.0 0.0 0.00 0.13 0.00 97 1018.8
20260506110050 37 0 0.0 0.0 0.00 0.13 0.00 97 1018.7
20260506104550 37 0 0.0 0.0 0.00 0.18 0.00 97 1018.7
20260506103050 37 0 0.0 4.0 0.00 0.18 0.00 97 1018.7
20260506101549 37 0 0.0 0.0 0.00 0.18 0.00 97 1018.7
20260506100046 36 0 0.0 0.0 0.00 0.18 0.00 97 1018.6
20260506094607 37 343 2.0 5.0 0.00 0.19 0.00 97 1018.6
20260506093048 37 360 1.0 8.0 0.00 0.19 0.00 97 1018.6
20260506091553 37 15 2.0 5.0 0.00 0.19 0.00 97 1018.6
20260506090052 37 329 0.0 5.0 0.00 0.19 0.00 97 1018.7
20260506084552 37 344 2.0 5.0 0.00 0.21 0.00 97 1018.7
20260506083046 37 0 0.0 5.0 0.00 0.21 0.00 97 1018.8
20260506081548 37 0 0.0 5.0 0.00 0.21 0.00 97 1019.2
20260506073050 37 5 2.0 8.0 0.00 0.23 0.00 96 1019.5
20260506071551 37 355 2.0 10.0 0.00 0.23 0.00 96 1019.5
20260506061555 37 331 3.0 8.0 0.00 0.24 0.23 96 1018.9
20260506060104 37 0 0.0 0.0 0.00 0.24 0.23 96 1018.9
20260506044554 38 343 2.0 4.0 0.00 0.24 0.23 97 1018.1
20260506043054 38 327 2.0 3.0 0.00 0.24 0.23 97 1017.9
20260506041549 38 0 0.0 0.0 0.00 0.24 0.23 97 1017.8
20260506040053 38 0 0.0 0.0 0.00 0.24 0.23 97 1017.8
20260506034550 38 0 0.0 0.0 0.00 0.24 0.23 97 1017.6
20260506033050 38 0 0.0 0.0 0.00 0.24 0.23 97 1017.4
20260506031551 38 0 0.0 4.0 0.00 0.24 0.23 97 1017.2
20260506030053 38 0 0.0 4.0 0.00 0.24 0.23 96 1017.2
20260506024558 38 277 1.0 4.0 0.00 0.24 0.23 96 1016.9
20260506023050 38 0 1.0 4.0 0.00 0.24 0.23 96 1017.0
20260506021549 38 0 0.0 4.0 0.00 0.24 0.23 96 1016.7
20260506020055 38 281 1.0 4.0 0.00 0.24 0.23 96 1016.6
20260506014555 39 0 1.0 7.0 0.00 0.24 0.23 95 1016.3
20260506013050 39 0 2.0 8.0 0.00 0.24 0.23 94 1016.2
20260506011553 40 0 1.0 8.0 0.00 0.24 0.23 94 1016.1
20260506010050 40 219 1.0 6.0 0.00 0.24 0.23 94 1016.1
20260506004551 40 269 2.0 6.0 0.00 0.24 0.23 93 1016.1
20260506003057 41 276 2.0 7.0 0.00 0.24 0.23 91 1016.2
20260506001552 41 273 2.0 10.0 0.00 0.24 0.23 92 1016.1
20260506000052 40 180 0.0 6.0 0.00 0.24 0.23 92 1016.2
20260505234554 41 0 1.0 7.0 0.00 0.24 0.23 90 1016.2
20260505233045 42 0 1.0 8.0 0.00 0.24 0.23 90 1016.2
20260505231600 43 267 2.0 6.0 0.00 0.24 0.23 91 1016.2
20260505230058 40 168 1.0 6.0 0.00 0.24 0.23 94 1016.2
20260505224548 40 283 2.0 7.0 0.00 0.24 0.23 93 1016.2
20260505223050 40 290 2.0 7.0 0.00 0.24 0.23 92 1016.4
20260505221549 41 302 2.0 4.0 0.00 0.24 0.23 91 1016.4
20260505220051 40 0 1.0 6.0 0.00 0.24 0.23 91 1016.4
20260505214550 41 322 2.0 8.0 0.00 0.24 0.23 91 1016.6
20260505213056 42 295 2.0 7.0 0.00 0.24 0.23 90 1016.7
20260505211552 42 302 1.0 6.0 0.00 0.24 0.23 93 1016.8
20260505210046 42 192 0.0 5.0 0.00 0.24 0.23 95 1016.8
20260505204550 41 263 0.0 5.0 0.00 0.24 0.23 95 1016.8
20260505203104 41 163 0.0 8.0 0.01 0.24 0.23 95 1016.6
20260505201554 42 0 0.0 6.0 0.01 0.24 0.23 96 1016.8
20260505200055 40 0 1.0 5.0 0.01 0.24 0.23 97 1016.7
20260505194551 41 0 0.0 6.0 0.01 0.24 0.23 98 1016.9
20260505193050 39 0 1.0 8.0 0.00 0.23 0.22 98 1016.8
20260505191609 40 10 2.0 8.0 0.00 0.23 0.22 98 1017.0
20260505190054 39 0 0.0 4.0 0.00 0.23 0.22 98 1016.9
20260505184557 38 0 0.0 8.0 0.00 0.23 0.22 98 1016.8
20260505183056 38 281 2.0 7.0 0.00 0.23 0.22 98 1016.6
20260505181550 38 288 2.0 6.0 0.00 0.23 0.22 98 1016.6
20260505180105 38 0 1.0 7.0 0.00 0.23 0.22 98 1016.4